ALSAT-1B

Last updated on Mon Sep 21 2026 00:02:46 GMT+0000 (Coordinated Universal Time)

1 41785U 16059C 26263.59067079 .00000289 00000+0 53121-4 0 9992 2 41785 97.7798 268.2566 0007811 283.1882 76.8454 14.72334973534614
UTC large
Height (km)
Speed (km/s)
/
Latitude / Longitude
Inclination (degrees)
Orbital Period (minutes)
Azimuth
Elevation
Range (km)
Doppler Factor

Next 0 passes for location: London (51.5072 / 0.1276)

No passes found over London.
ALSAT-1B